Simultaneous Nadir Overpasses (SNOs) Predictions

Prediction of SNOs between GOES-16 and NOAA-21 Satellite Orbit:

Table of predicted SNOs for the next 14.0 days since TLE Epoch: 11/1/2024
Index Date Time (GOES-16) GOES-16 Lat,Lon NOAA-21 Lat,Lon Distance(km) Time Diff (sec)
1 11/02/2024 06:43:28 0.02, -75.20 0.96, -79.50 490.10 80
2 11/03/2024 06:27:27 0.02, -75.20 -0.05, -74.99 24.46 80
3 11/05/2024 18:28:09 -0.02, -75.21 -0.18, -75.80 67.86 80
4 11/06/2024 18:12:09 -0.02, -75.22 0.84, -71.29 446.88 80
5 11/08/2024 06:34:02 0.01, -75.21 0.33, -76.59 157.44 80
6 11/09/2024 06:12:42 0.01, -75.22 -0.71, -72.08 357.60 80
7 11/10/2024 18:34:44 -0.01, -75.24 -0.48, -77.42 247.72 80
8 11/11/2024 18:18:42 -0.01, -75.25 0.51, -72.90 268.00 80
9 11/13/2024 06:40:35 0.01, -75.26 0.68, -78.19 334.54 80
10 11/14/2024 06:19:13 0.01, -75.27 -0.32, -73.67 181.46 80
11 11/15/2024 18:41:16 -0.01, -75.30 -0.83, -79.01 422.84 80
